www.pogodaiklimat.ru

Погода и климат >> Архив погоды >> Россия >> Забайкальский край >> Забайкальск


ПОГОДА в Забайкальске

  • Прогноз погоды в Забайкальске
  • Монитор погоды в Забайкальске
  • Климат города

АРХИВ ПОГОДЫ в Забайкальске

Время (UTC), дата Ветер
(напр.,м/с)
 
Видим.   Явления Облачность Т
(С)
Тd
(С)
f
(%)
Тe
(С)
Тes
(С)
Комфортность P
(гПа)
Po
(гПа)
Тmin
(С)
Tmax
(С)
R
(мм)
R24
(мм)
S
(см)
15 16.06 З 6 20 км 3/1 1000 м
[Sc diur, vesp Ci sp]
+13.4 +3.5 51 +11 +11 1003.9 925.2
18 16.06 С 3 20 км 5/3 600 м
[Cb cap Ci sp]
+11.3 +4.6 63 +10 +10 1004.4 925.0
21 16.06 С 4 50 км 5/3 600 м
[Cb cap Ci sp]
+9.4 +4.4 71 +7 +7 1005.0 925.0
00 17.06 З 5
{7}
50 км 4/3 1000 м
[Cu hum Ci sp]
+18.6 +6.7 46 +19 +21 1002.4 925.1 +8.7
03 17.06 З 6
{13}
50 км 8/6 1000 м
[Cu med, cong Ci sp]
+20.3 +6.1 40 +21 +23 комфорт 1001.1 924.3
06 17.06 СЗ 6
{11}
50 км 7 баллов +22.3 +6.1 35 +23 +25 комфорт 1000.3 924.0
09 17.06 СЗ 8
{13}
50 км 9 баллов +20.7 +6.6 40 +21 +21 комфорт 1000.7 924.0
12 17.06 СЗ 5
{11}
50 км 5/3 1000 м
[Cb calv Ac lent Ci sp]
+17.6 +6.7 49 +17 +17 1001.4 924.0 +22.7
15 17.06 С 2 20 км 1/0
[Ci fib]
+10.8 +6.4 74 +10 +10 1003.9 924.5
18 17.06 З 1 20 км 3/0
[Ci sp]
+9.1 +6.8 86 +8 +8 1003.8 924.0
21 17.06 СЗ 4 50 км 4/3 600 м
[Cb cap Ci sp]
+11.3 +8.1 81 +9 +9 1003.0 923.8
00 18.06 СЗ 5
{9}
50 км 6/6 600 м
[Cb cap]
+15.5 +8.9 65 +14 +16 1002.1 924.1 +8.2
03 18.06 СЗ 5
{13}
50 км в посл. час ливневой дождь 7 баллов +19.7 +8.7 49 +21 +23 комфорт 1000.9 924.0
06 18.06 Ю 1
{14}
50 км 9/9 600 м
[Cb cap]
+20.1 +8.6 47 +22 +24 комфорт 1000.0 923.3
09 18.06 ЮЗ 3
{11}
50 км гроза без осадков 9 баллов +18.3 +10.9 62 +19 +19 1001.3 924.0
12 18.06 В 2
{14}
50 км 9 баллов +17.0 +9.4 61 +17 +17 1003.1 925.3 +21.4 2
15 18.06 СЗ 3 10 км дым 10/10 600 м
[Cb cap]
+14.2 +9.8 75 +13 +13 1003.4 925.0
18 18.06 С 5 20 км 10/10 600 м
[Cb cap]
+13.5 +9.8 78 +12 +12 1004.2 925.5
21 18.06 С 4 50 км 10/10 600 м
[Cb cap]
+12.3 +10.1 86 +10 +10 1004.7 925.6
00 19.06 С 4
{7}
50 км 10/10 600 м
[Cb cap]
+15.9 +9.9 68 +15 +15 1004.6 926.5 +12.1
03 19.06 СВ 7
{11}
20 км дым 10 баллов +16.8 +10.6 67 +16 +16 1006.0 928.0
06 19.06 С 9
{14}
50 км 10 баллов +18.3 +11.4 64 +18 +18 1004.2 926.7
09 19.06 СВ 6
{14}
50 км 9/9 600 м
[Cb cap]
+22.6 +6.4 35 +23 +23 комфорт 1002.1 925.9
12 19.06 СВ 5
{12}
50 км 9/6 600 м
[Cb cap Ci sp]
+21.0 +5.8 37 +22 +22 комфорт 1004.1 927.2 +24.0 0.1
15 19.06 СЗ 1 20 км 6/3 600 м
[Cb cap Ci sp]
+14.3 +6.5 59 +15 +15 1007.1 928.3
18 19.06 СЗ 4 20 км 8/3 600 м
[Cb cap Ci sp]
+12.6 +7.3 70 +11 +11 1007.6 928.4
21 19.06 З 1 50 км ясно +10.9 +6.6 75 +11 +11 1008.9 929.1
00 20.06 С 7-11
{11}
50 км 4/3 1000 м
[Cu hum Ci sp]
+21.3 +4.1 32 +22 +23 комфорт 1006.8 929.8 +9.5
03 20.06 С 9
{13}
50 км 2 балла +23.8 +3.7 27 +23 +25 комфорт 1007.2 930.7
06 20.06 СВ 9
{16}
50 км 4 балла +25.6 +4.1 25 +25 +26 комфорт 1005.2 929.3
09 20.06 В 7
{15}
50 км 5 баллов +23.5 +8.7 39 +24 +25 комфорт 1005.7 929.3
12 20.06 В 6
{13}
50 км 4/4 1000 м
[Cb cap]
+20.1 +9.8 51 +21 +21 комфорт 1007.1 929.9 +25.9
15 20.06 ЮЗ 2 20 км ясно +14.9 +9.2 69 +15 +15 1010.0 931.2
18 20.06 СЗ 3 20 км ясно +11.1 +8.2 82 +9 +9 1012.1 932.1
21 20.06 С 4 50 км 3/3 1000 м
[Cu hum]
+12.0 +9.1 82 +10 +10 1012.6 932.9
00 21.06 В 4
{8}
50 км 3/1 1000 м
[Cu hum Ci fib]
+21.3 +7.3 40 +22 +26 комфорт 1010.5 933.3 +10.8
03 21.06 СВ 5
{16}
50 км 6/6 1000 м
[Cu hum]
+24.9 +3.4 25 +24 +28 комфорт 1008.9 932.7
06 21.06 СВ 4 50 км 6/6 1000 м
[Cu med, cong]
+26.4 +3.0 22 +25 +29 комфорт 1006.6 930.9
09 21.06 В 4
{11}
50 км 5/4 1000 м
[Cu hum Ci sp]
+26.7 +1.9 20 +25 +27 комфорт 1005.5 929.9
12 21.06 С 2
{16}
50 км 4 балла +23.8 +2.0 24 +23 +23 комфорт 1007.2 930.7 +27.9
15 21.06 С 5 20 км 3/0
[Ci sp]
+15.6 +1.2 38 +15 +15 1009.8 931.1
18 21.06 С 6 20 км ясно +13.9 +1.4 43 +12 +12 1010.5 931.3
21 21.06 С 5 50 км 1/1 1000 м
[Cu hum]
+13.5 +2.4 47 +12 +12 1011.2 931.9
00 22.06 С 5
{8}
50 км 1/0
[Ac lent]
+20.4 +3.6 33 +21 +21 комфорт 1007.9 932.2 +12.8
03 22.06 С 3
{10}
50 км 8/8 600 м
[Cb cap]
+28.3 +1.5 18 +26 +29 жарко 1007.3 931.9
06 22.06 З 2
{10}
50 км 8/8 1000 м
[Cu med, cong]
+31.0 +2.2 16 +28 +32 жарко 1004.9 930.4
09 22.06 В 4 50 км 9/8 1000 м
[Cb calv Ci sp]
+29.9 +3.5 19 +28 +28 жарко 1003.9 929.2
12 22.06 В 2
{10}
50 км 9 баллов +26.8 +6.2 27 +26 +26 жарко 1006.4 930.7 +31.8
15 22.06 Ю 1 20 км 4/4 1000 м
[Sc diur, vesp]
+22.5 +8.5 41 +24 +24 комфорт 1007.5 930.9
18 22.06 С 2 20 км 8/8 600 м
[Cb cap]
+18.6 +11.3 62 +20 +20 1008.4 930.8
21 22.06 СВ 2 50 км 6/6 600 м
[Cb cap]
+18.8 +10.1 57 +20 +20 1008.1 930.5
00 23.06 ЮВ 2
{5}
50 км 3/3 1000 м
[Cb calv]
+26.5 +10.3 36 +27 +32 жарко 1006.4 930.9 +16.6
03 23.06 В 4 50 км 6/6 1000 м
[Cb calv]
+30.7 +7.8 24 +30 +34 жарко 1004.6 930.1
06 23.06 ЮВ 2
{10}
50 км 6/6 600 м
[Cb cap]
+31.9 +6.8 21 +30 +36 жарко 1002.4 928.3
09 23.06 СЗ 3
{10}
50 км 7 баллов +31.2 +6.9 22 +30 +31 жарко 1002.3 928.0
12 23.06 С 3
{13}
50 км 6/6 600 м
[Cb cap]
+25.9 +10.5 38 +27 +27 жарко 1003.3 927.9 +33.1

 

Местоположение метеостанции Забайкальск (Забайкальский край, Россия): широта 49.63 долгота 117.30 высота над уровнем моря 694 м.

В архиве по умолчанию представлена погода в Забайкальске за последнюю неделю. Архивные данные за месяц целиком и за предыдущие месяцы, начиная с января 2011 года, Вы можете получить, выбрав интересующий диапазон дат из раскрывающегося списка и нажав кнопку "Ввод!".

Внимание! Время в таблицах - всемирное. Для получения местного времени необходимо прибавить поправку, которая в Забайкальске равна 9 ч.

Смотрите также архив погоды в соседних городах и на ближайших метеорологических станциях:

Погода в Кайластуе (Забайкальский край, Россия) (75 км)
Погода в Борзе (Забайкальский край, Россия) (103 км)
Погода в Xin Barag Youqi (Китай) (113 км)
Погода в Соловьевске (Забайкальский край, Россия) (119 км)
Погода в Приаргунске (Забайкальский край, Россия) (149 км)
Погода в Александровском Заводе (Забайкальский край, Россия) (150 км)
Погода в Hailar (Китай) (183 км)
Погода в Оловянной (Забайкальский край, Россия) (195 км)
Погода в Dashbalbar (Монголия) (209 км)
Погода в Балее (Забайкальский край, Россия) (218 км)

Пояснения к столбцам:

Ветер - указаны скорость ветра в м/с - средняя за 10 мин, порывы в срок и между сроками (в фигурных скобках) и направление, откуда дует ветер: С - северный, СВ - северо-восточный, В - восточный, ЮВ - юго-восточный, Ю - южный, ЮЗ - юго-западный, З - западный, СЗ - северо-западный.
Видимость - горизонтальная дальность видимости в метрах или километрах. При видимости от 1 до 10 км при отсутствии осадков обычно наблюдается дымка, при ухудшении видимости до 1 км и менее - туман. В сухую погоду видимость может ухудшаться дымом, пылью или мглою.
Явления - указаны атмосферные явления, наблюдавшиеся в срок или в последний час перед сроком; фигурными скобками обозначены явления, наблюдавшиеся между сроками (за 1-3 часа до срока); квадратными скобками обозначены град или гололедные отложения с указанием их диаметра в мм.
Облачность - указаны через наклонную черту общая и нижняя облачность в баллах и высота нижней границы облаков в метрах; квадратными скобками обозначены формы облаков: Ci - перистые, Cs - перисто-слоистые, Cc - перисто-кучевые, Ac - высококучевые, As - высокослоистые, Sc - слоисто-кучевые, Ns - слоисто-дождевые, Cu - кучевые, Cb - кучево-дождевые. Подробнее классификацию облаков см. в Атласе облаков (PDF).
T - Температура воздуха - температура, измеренная на высоте 2 м над землей.
Td - Температура точки росы - температура, при понижении до которой содержащийся в воздухе водяной пар достигнет насыщения.
f - Относительная влажность воздуха - влажноcть воздуха, измеренная на высоте 2 м над землей.
Te - Эффективная температура - температура, которую ощущает одетый по сезону человек в тени. Характеристика душности погоды. При расчете учитывается влияние влажности воздуха и скорости ветра на теплоощущения человека.
Tes - Эффективная температура на солнце - температура, которую ощущает человек, с поправкой на солнечный нагрев. Характеристика знойности погоды. Зависит от высоты солнца над горизонтом, облачности и скорости ветра. Ночью, в пасмурную погоду, а также при ветре 12 м/с и более поправка равна нулю.
P - Атмосферное давление - приведенное к уровню моря атмосферное давление.
Po - Атмосферное давление - измеренное на уровне метеостанции атмосферное давление.
Tmin - Минимальная температура - минимум температуры воздуха на высоте 2 м над землей.
Tmax - Максимальная температура - максимум температуры воздуха на высоте 2 м над землей.
R - Количество осадков - Количество выпавших осадков за период времени, мм. При наведении курсора мыши на число - период времени, за который выпало указанное количество осадков.
R24 - Количество осадков - Количество выпавших осадков за 24 часа, мм.
S - Снежный покров - Высота снежного покрова, см. При наведении курсора мыши на число - состояние снежного покрова и степень покрытия местности в баллах.